| time (UTC) | temp C | wind direction | speed KPH | gust KPH | rain 1hr cm | rain 24hr cm | rain mn cm | humidity % | barometer mb |
| 20260508004514 | 10 | 0.0 | 0.0 | 0.00 | 0.05 | 0.03 | 47 | 1005.6 | |
| 20260508003009 | 11 | 0.0 | 0.0 | 0.00 | 0.05 | 0.03 | 46 | 1005.3 | |
| 20260508001502 | 11 | 0.0 | 0.0 | 0.00 | 0.05 | 0.03 | 45 | 1005.1 | |
| 20260508000055 | 12 | 0.0 | 0.0 | 0.00 | 0.05 | 0.03 | 43 | 1005.3 | |
| 20260507234552 | 12 | 0.0 | 0.0 | 0.00 | 0.15 | 0.03 | 43 | 1005.1 | |
| 20260507233045 | 13 | 0.0 | 0.0 | 0.00 | 0.15 | 0.03 | 37 | 1004.9 | |
| 20260507231541 | 13 | 0.0 | 0.0 | 0.00 | 0.15 | 0.03 | 42 | 1004.7 | |
| 20260507230033 | 13 | 0.0 | 0.0 | 0.00 | 0.15 | 0.03 | 37 | 1004.6 | |
| 20260507224528 | 14 | 0.0 | 0.0 | 0.00 | 0.20 | 0.03 | 35 | 1004.4 | |
| 20260507223025 | 15 | 244 | 1.6 | 20.9 | 0.00 | 0.20 | 0.03 | 34 | 1004.4 |
| 20260507221523 | 15 | 257 | 8.0 | 20.9 | 0.00 | 0.20 | 0.03 | 34 | 1004.3 |
| 20260507220021 | 15 | 215 | 4.8 | 12.9 | 0.00 | 0.20 | 0.03 | 38 | 1004.2 |
| 20260507214520 | 15 | 236 | 4.8 | 19.3 | 0.00 | 0.23 | 0.03 | 34 | 1003.9 |
| 20260507213021 | 16 | 248 | 3.2 | 20.9 | 0.00 | 0.23 | 0.03 | 35 | 1003.8 |
| 20260507211517 | 16 | 237 | 6.4 | 24.1 | 0.00 | 0.23 | 0.03 | 37 | 1003.9 |
| 20260507210016 | 16 | 31 | 8.0 | 17.7 | 0.00 | 0.23 | 0.03 | 34 | 1003.6 |
| 20260507204513 | 17 | 221 | 6.4 | 19.3 | 0.00 | 0.28 | 0.03 | 36 | 1003.7 |
| 20260507203011 | 17 | 224 | 9.7 | 27.4 | 0.00 | 0.28 | 0.03 | 31 | 1003.7 |
| 20260507201511 | 17 | 212 | 4.8 | 17.7 | 0.00 | 0.28 | 0.03 | 31 | 1003.5 |
| 20260507200005 | 17 | 238 | 4.8 | 16.1 | 0.00 | 0.28 | 0.03 | 33 | 1003.6 |
| 20260507194610 | 16 | 254 | 8.0 | 20.9 | 0.00 | 0.41 | 0.03 | 34 | 1003.9 |
| 20260507193059 | 16 | 237 | 6.4 | 16.1 | 0.00 | 0.41 | 0.03 | 34 | 1004.1 |
| 20260507191615 | 17 | 217 | 4.8 | 17.7 | 0.00 | 0.41 | 0.03 | 38 | 1004.3 |
| 20260507190054 | 16 | 223 | 8.0 | 19.3 | 0.00 | 0.41 | 0.03 | 33 | 1004.4 |
| 20260507184601 | 16 | 5 | 1.6 | 20.9 | 0.00 | 0.43 | 0.03 | 33 | 1004.4 |
| 20260507183050 | 17 | 225 | 3.2 | 19.3 | 0.00 | 0.43 | 0.03 | 29 | 1004.4 |
| 20260507181548 | 17 | 192 | 4.8 | 27.4 | 0.00 | 0.43 | 0.03 | 33 | 1004.4 |
| 20260507180045 | 16 | 229 | 8.0 | 22.5 | 0.00 | 0.43 | 0.03 | 30 | 1004.8 |
| 20260507174542 | 16 | 213 | 8.0 | 24.1 | 0.00 | 0.43 | 0.03 | 33 | 1004.7 |
| 20260507173037 | 16 | 276 | 1.6 | 25.7 | 0.00 | 0.43 | 0.03 | 40 | 1004.6 |
| 20260507171532 | 16 | 9 | 6.4 | 16.1 | 0.00 | 0.43 | 0.03 | 40 | 1004.7 |
| 20260507170030 | 16 | 232 | 6.4 | 19.3 | 0.00 | 0.43 | 0.03 | 39 | 1005.0 |
| 20260507164531 | 15 | 19 | 4.8 | 20.9 | 0.00 | 0.43 | 0.03 | 44 | 1005.2 |
| 20260507163028 | 15 | 249 | 3.2 | 22.5 | 0.00 | 0.43 | 0.03 | 42 | 1005.3 |
| 20260507161524 | 15 | 228 | 8.0 | 19.3 | 0.00 | 0.43 | 0.03 | 48 | 1005.5 |
| 20260507160030 | 15 | 254 | 3.2 | 17.7 | 0.00 | 0.43 | 0.03 | 50 | 1005.4 |
| 20260507154519 | 15 | 227 | 1.6 | 14.5 | 0.00 | 0.43 | 0.03 | 54 | 1005.6 |
| 20260507153005 | 15 | 213 | 6.4 | 16.1 | 0.00 | 0.43 | 0.03 | 61 | 1005.6 |
| 20260507151605 | 15 | 244 | 4.8 | 16.1 | 0.00 | 0.43 | 0.03 | 58 | 1005.7 |
| 20260507150057 | 13 | 231 | 6.4 | 14.5 | 0.00 | 0.43 | 0.03 | 61 | 1005.9 |
| 20260507144555 | 14 | 192 | 3.2 | 12.9 | 0.00 | 0.43 | 0.03 | 60 | 1006.0 |
| 20260507143105 | 13 | 205 | 3.2 | 16.1 | 0.00 | 0.43 | 0.03 | 63 | 1006.1 |
| 20260507141604 | 13 | 246 | 1.6 | 11.3 | 0.00 | 0.43 | 0.03 | 63 | 1006.3 |
| 20260507140045 | 13 | 241 | 0.0 | 11.3 | 0.00 | 0.43 | 0.03 | 70 | 1006.2 |
| 20260507134542 | 13 | 22 | 0.0 | 12.9 | 0.00 | 0.43 | 0.03 | 68 | 1006.1 |
| 20260507133041 | 13 | 360 | 3.2 | 16.1 | 0.00 | 0.43 | 0.03 | 67 | 1006.1 |
| 20260507131540 | 12 | 259 | 4.8 | 11.3 | 0.00 | 0.43 | 0.03 | 66 | 1006.3 |
| 20260507130039 | 12 | 242 | 1.6 | 9.7 | 0.00 | 0.43 | 0.03 | 75 | 1006.4 |
| 20260507124525 | 12 | 235 | 4.8 | 11.3 | 0.00 | 0.43 | 0.03 | 75 | 1006.4 |
| 20260507123022 | 11 | 219 | 3.2 | 11.3 | 0.00 | 0.43 | 0.03 | 76 | 1006.4 |
| 20260507121518 | 10 | 263 | 0.0 | 8.0 | 0.00 | 0.43 | 0.03 | 81 | 1006.5 |
| 20260507120016 | 10 | 225 | 3.2 | 8.0 | 0.00 | 0.43 | 0.03 | 85 | 1006.4 |
| 20260507114514 | 10 | 0.0 | 0.0 | 0.00 | 0.43 | 0.03 | 85 | 1006.5 | |
| 20260507113001 | 9 | 0.0 | 0.0 | 0.00 | 0.43 | 0.03 | 89 | 1006.5 | |
| 20260507111556 | 8 | 0.0 | 0.0 | 0.00 | 0.43 | 0.03 | 88 | 1006.5 | |
| 20260507110051 | 8 | 0.0 | 0.0 | 0.00 | 0.43 | 0.03 | 91 | 1006.1 | |
| 20260507104544 | -17 | 0.0 | 0.0 | 0.00 | 0.43 | 0.03 | 1006.3 | ||
| 20260507103038 | -17 | 0.0 | 0.0 | 0.00 | 0.43 | 0.03 | 1005.8 | ||
| 20260507101533 | -17 | 0.0 | 0.0 | 0.00 | 0.43 | 0.03 | 1005.5 | ||
| 20260507100036 | -17 | 0.0 | 0.0 | 0.00 | 0.43 | 0.03 | 1005.8 | ||
| 20260507094520 | -17 | 0.0 | 0.0 | 0.00 | 0.43 | 0.03 | 1005.2 | ||
| 20260507093014 | -17 | 0.0 | 0.0 | 0.00 | 0.43 | 0.03 | 1005.7 | ||
| 20260507091513 | -17 | 0.0 | 0.0 | 0.00 | 0.43 | 0.03 | 1005.6 | ||
| 20260507090002 | -17 | 0.0 | 0.0 | 0.00 | 0.43 | 0.03 | 1006.1 | ||
| 20260507084558 | -17 | 0.0 | 0.0 | 0.00 | 0.43 | 0.03 | 1005.9 | ||
| 20260507083051 | -17 | 0.0 | 0.0 | 0.00 | 0.43 | 0.03 | 1005.8 | ||
| 20260507081553 | -17 | 0.0 | 0.0 | 0.00 | 0.43 | 0.03 | 1005.5 | ||
| 20260507080040 | -17 | 0.0 | 0.0 | 0.00 | 0.43 | 0.03 | 1005.5 | ||
| 20260507074534 | -17 | 0.0 | 0.0 | 0.00 | 0.43 | 0.03 | 1005.6 | ||
| 20260507073031 | -17 | 0.0 | 0.0 | 0.00 | 0.43 | 0.03 | 1005.7 | ||
| 20260507071528 | -17 | 0.0 | 0.0 | 0.00 | 0.43 | 0.03 | 1004.9 | ||
| 20260507070014 | 11 | 0.0 | 0.0 | 0.00 | 0.43 | 0.03 | 91 | 1005.0 | |
| 20260507064509 | 11 | 0.0 | 0.0 | 0.00 | 0.43 | 0.03 | 89 | 1004.6 | |
| 20260507063004 | 11 | 0.0 | 0.0 | 0.00 | 0.43 | 0.03 | 91 | 1004.8 | |
| 20260507061558 | 11 | 0.0 | 0.0 | 0.00 | 0.43 | 0.03 | 92 | 1004.8 | |
| 20260507060110 | 11 | 0.0 | 0.0 | 0.00 | 0.43 | 0.03 | 93 | 1004.8 | |
| 20260507054551 | 12 | 0.0 | 0.0 | 0.00 | 0.43 | 0.03 | 92 | 1004.7 | |
| 20260507053041 | 12 | 0.0 | 0.0 | 0.00 | 0.43 | 0.03 | 92 | 1005.2 | |
| 20260507051540 | 12 | 0.0 | 0.0 | 0.00 | 0.43 | 0.03 | 92 | 1005.2 | |
| 20260507050039 | 12 | 0.0 | 0.0 | 0.03 | 0.43 | 0.03 | 91 | 1005.2 | |
| 20260507044524 | 13 | 0.0 | 0.0 | 0.03 | 0.43 | 0.03 | 92 | 1005.4 | |
| 20260507043018 | 13 | 0.0 | 0.0 | 0.03 | 0.43 | 0.03 | 92 | 1005.0 | |
| 20260507041522 | 13 | 0.0 | 0.0 | 0.03 | 0.43 | 0.03 | 94 | 1004.9 | |
| 20260507040006 | 13 | 0.0 | 0.0 | 0.00 | 0.41 | 0.00 | 94 | 1004.9 | |
| 20260507034500 | 13 | 0.0 | 0.0 | 0.00 | 0.41 | 0.41 | 94 | 1004.7 | |
| 20260507033056 | 14 | 0.0 | 0.0 | 0.00 | 0.41 | 0.41 | 94 | 1004.4 | |
| 20260507031550 | 14 | 0.0 | 0.0 | 0.00 | 0.41 | 0.41 | 94 | 1004.3 | |
| 20260507030044 | 14 | 0.0 | 0.0 | 0.00 | 0.41 | 0.41 | 95 | 1004.2 | |
| 20260507024538 | 14 | 0.0 | 0.0 | 0.00 | 0.41 | 0.41 | 94 | 1003.9 | |
| 20260507023032 | 14 | 0.0 | 0.0 | 0.00 | 0.41 | 0.41 | 94 | 1004.0 | |
| 20260507021527 | 14 | 0.0 | 0.0 | 0.00 | 0.41 | 0.41 | 94 | 1003.9 | |
| 20260507020020 | 14 | 0.0 | 0.0 | 0.00 | 0.41 | 0.41 | 94 | 1003.7 | |
| 20260507014511 | 14 | 0.0 | 0.0 | 0.03 | 0.41 | 0.41 | 94 | 1003.9 | |
| 20260507013006 | 14 | 0.0 | 0.0 | 0.03 | 0.41 | 0.41 | 94 | 1003.9 | |
| 20260507011556 | 14 | 0.0 | 0.0 | 0.03 | 0.41 | 0.41 | 94 | 1004.1 | |
| 20260507010100 | 14 | 0.0 | 0.0 | 0.03 | 0.41 | 0.41 | 94 | 1004.1 |